Weather History for Fort Smith, AR

Change the Weather History Date:

Wednesday, November 7, 2012

  Actual Average Record
Temperature  
Mean Temperature 53 °F 55 °F  
Max Temperature 69 °F 67 °F 84 °F (2005)
Min Temperature 37 °F 44 °F 20 °F (1959)
Degree Days  
Heating Degree Days 12 10  
Month to date heating degree days 48 65  
Since 1 July heating degree days 208 219  
Growing Degree Days 3 (Base 50)    
Moisture  
Dew Point 33 °F    
Average Humidity 54    
Maximum Humidity 86    
Minimum Humidity 21    
Precipitation  
Precipitation 0.00 in 0.15 in 2.12 in (1957)
Month to date precipitation 0.00 1.04  
Year to date precipitation 30.90 38.77  
Sea Level Pressure  
Sea Level Pressure 30.13 in    
Wind  
Wind Speed 6 mph (WNW)    
Max Wind Speed 17 mph    
Max Gust Speed 23 mph    
Visibility 10 miles    
Events      
T = Trace of Precipitation, MM = Missing Value Source: NWS Daily Summary

Daily Weather History Graph

Daily Weather History Graph

Search for Another Location

Airport:

Trip Planner

Search our weather history database for the weather conditions in past years. The results will help you decide how hot, cold, wet, or windy it might be!

Date:

Astronomy

Nov. 07, 2012 Rise Set
Actual Time 6:45 AM CST 5:16 PM CST
Civil Twilight 6:18 AM CST 5:43 PM CST
Nautical Twilight 5:48 AM CST 6:13 PM CST
Astronomical Twilight 5:18 AM CST 6:43 PM CST
Moon No Moon Rise 1:12 PM CST (11/7)
Length of Visible Light 11h 24m
Length of Day
10h 31m
Last Quarter, 43% of the Moon is Illuminated
Nov 7
Last Quarter
Nov 13
New
Nov 20
First Quarter
Nov 28
Full
Dec 6
Last Quarter

Hourly Weather History & Observations

Time (CST) Temp. Windchill Dew Point Humidity Pressure Visibility Wind Dir Wind Speed Gust Speed Precip Events Conditions
12:53 AM 46.0 °F 44.8 °F 39.0 °F 76% 30.10 in 10.0 mi WSW 3.5 mph - N/A   Clear
1:53 AM 42.1 °F 39.2 °F 37.0 °F 82% 30.10 in 10.0 mi SW 4.6 mph - N/A   Clear
2:53 AM 44.1 °F 41.5 °F 37.0 °F 76% 30.11 in 10.0 mi WSW 4.6 mph - N/A   Clear
3:53 AM 41.0 °F 38.0 °F 37.0 °F 86% 30.11 in 10.0 mi WSW 4.6 mph - N/A   Clear
4:53 AM 44.1 °F 42.5 °F 39.0 °F 82% 30.12 in 10.0 mi West 3.5 mph - N/A   Clear
5:53 AM 39.0 °F 34.8 °F 35.1 °F 86% 30.14 in 10.0 mi West 5.8 mph - N/A   Clear
6:53 AM 39.0 °F 35.7 °F 35.1 °F 86% 30.16 in 10.0 mi West 4.6 mph - N/A   Clear
7:53 AM 45.0 °F 43.5 °F 37.9 °F 76% 30.17 in 10.0 mi WSW 3.5 mph - N/A   Clear
8:53 AM 48.9 °F - 36.0 °F 61% 30.18 in 10.0 mi WSW 9.2 mph - N/A   Clear
9:53 AM 54.0 °F - 34.0 °F 47% 30.18 in 10.0 mi WSW 6.9 mph - N/A   Clear
10:53 AM 59.0 °F - 33.1 °F 38% 30.17 in 10.0 mi WNW 8.1 mph - N/A   Clear
11:53 AM 64.0 °F - 28.0 °F 26% 30.14 in 10.0 mi NW 12.7 mph 19.6 mph N/A   Clear
12:53 PM 64.9 °F - 27.0 °F 24% 30.12 in 10.0 mi WNW 11.5 mph 18.4 mph N/A   Clear
1:53 PM 66.9 °F - 26.1 °F 21% 30.09 in 10.0 mi NW 13.8 mph 18.4 mph N/A   Clear
2:53 PM 68.0 °F - 26.1 °F 21% 30.09 in 10.0 mi North 6.9 mph - N/A   Clear
3:53 PM 68.0 °F - 26.1 °F 21% 30.09 in 10.0 mi NNW 6.9 mph - N/A   Clear
4:53 PM 64.0 °F - 26.1 °F 24% 30.09 in 10.0 mi North 8.1 mph - N/A   Clear
5:53 PM 55.9 °F - 28.9 °F 36% 30.10 in 10.0 mi North 5.8 mph - N/A   Clear
6:53 PM 54.0 °F - 30.0 °F 40% 30.11 in 10.0 mi Calm Calm - N/A   Clear
7:53 PM 48.9 °F - 32.0 °F 52% 30.12 in 10.0 mi Calm Calm - N/A   Clear
8:53 PM 46.0 °F - 32.0 °F 58% 30.13 in 10.0 mi Calm Calm - N/A   Clear
9:53 PM 45.0 °F - 32.0 °F 60% 30.13 in 10.0 mi Calm Calm - N/A   Clear
10:53 PM 45.0 °F 41.2 °F 35.1 °F 68% 30.13 in 10.0 mi ENE 6.9 mph - N/A   Clear
11:53 PM 44.1 °F 40.8 °F 36.0 °F 73% 30.15 in 10.0 mi NE 5.8 mph - N/A   Clear